Weather History for Athens Eleftherios, Greece

Change the Weather History Date:

Wednesday, September 11, 2013

  Actual Average (LGEL) Record (LGEL)
Temperature  
Mean Temperature 78 °F -  
Max Temperature 93 °F 82 °F 95 °F (2011)
Min Temperature 62 °F 65 °F 57 °F (2004)
Cooling Degree Days 12    
Growing Degree Days 28 (Base 50)    
Moisture  
Dew Point 59 °F    
Average Humidity 53    
Maximum Humidity 77    
Minimum Humidity 30    
Precipitation  
Precipitation 0.00 in - - ()
Sea Level Pressure  
Sea Level Pressure 30.00 in    
Wind  
Wind Speed 4 mph ()    
Max Wind Speed 18 mph    
Max Gust Speed -    
Averages and records for this station are not official NWS values.
T = Trace of Precipitation, MM = Missing Value Source: Averaged Metar Reports

Daily Weather History Graph

Daily Weather History Graph

Search for Another Location

Airport:

Trip Planner

Search our weather history database for the weather conditions in past years. The results will help you decide how hot, cold, wet, or windy it might be!

Date:

Astronomy

Sep. 11, 2013 Rise Set
Actual Time 7:02 AM EEST 7:38 PM EEST
Civil Twilight 6:36 AM EEST 8:04 PM EEST
Nautical Twilight 6:04 AM EEST 8:36 PM EEST
Astronomical Twilight 5:32 AM EEST 9:08 PM EEST
Moon 1:04 PM EEST (9/11) 11:23 PM EEST (9/11)
Length of Visible Light 13h 28m
Length of Day
12h 35m
Waxing Crescent, 35% of the Moon is Illuminated
Sep 11
Waxing Crescent
Sep 12
First Quarter
Sep 19
Full
Sep 27
Last Quarter
Oct 5
New

Hourly Weather History & Observations

Time (EEST) Temp. Heat Index Dew Point Humidity Pressure Visibility Wind Dir Wind Speed Gust Speed Precip Events Conditions
12:50 AM 68.0 °F - 55.4 °F 64% 30.04 in - WSW 2.3 mph - N/A   Clear
1:20 AM 68.0 °F - 55.4 °F 64% 30.04 in - Variable 3.5 mph - N/A   Clear
1:50 AM 71.6 °F - 57.2 °F 60% 30.04 in - Calm Calm - N/A   Clear
2:20 AM 71.6 °F - 57.2 °F 60% 30.01 in - Variable 2.3 mph - N/A   Clear
2:50 AM 73.4 °F - 57.2 °F 57% 30.01 in - Variable 1.2 mph - N/A   Clear
3:20 AM 71.6 °F - 55.4 °F 57% 30.01 in - SSE 2.3 mph - N/A   Clear
3:50 AM 66.2 °F - 55.4 °F 68% 30.01 in - NW 4.6 mph - N/A   Clear
4:20 AM 68.0 °F - 57.2 °F 68% 30.01 in - Calm Calm - N/A   Clear
4:50 AM 66.2 °F - 57.2 °F 73% 30.01 in - West 2.3 mph - N/A   Clear
5:20 AM 66.2 °F - 55.4 °F 68% 30.01 in - West 4.6 mph - N/A   Clear
5:50 AM 66.2 °F - 57.2 °F 73% 30.01 in - WNW 2.3 mph - N/A   Clear
6:20 AM 64.4 °F - 55.4 °F 73% 30.01 in - NW 3.5 mph - N/A   Clear
6:50 AM 62.6 °F - 55.4 °F 77% 30.01 in - Calm Calm - N/A   Clear
7:20 AM 62.6 °F - 55.4 °F 77% 30.01 in - WSW 3.5 mph - N/A   Clear
7:50 AM 62.6 °F - 55.4 °F 77% 30.01 in - NNW 1.2 mph - N/A   Clear
8:20 AM 66.2 °F - 57.2 °F 73% 30.04 in - Variable 1.2 mph - N/A   Clear
8:50 AM 75.2 °F - 60.8 °F 61% 30.04 in - Variable 1.2 mph - N/A   Clear
9:20 AM 78.8 °F - 57.2 °F 47% 30.04 in - Variable 2.3 mph - N/A   Clear
9:50 AM 80.6 °F 81.1 °F 59.0 °F 48% 30.04 in - ENE 4.6 mph - N/A   Clear
10:20 AM 80.6 °F 81.1 °F 59.0 °F 48% 30.04 in - NE 4.6 mph - N/A   Clear
10:50 AM 82.4 °F 82.5 °F 59.0 °F 45% 30.04 in - East 4.6 mph - N/A   Clear
11:20 AM 84.2 °F 83.8 °F 59.0 °F 42% 30.04 in - East 4.6 mph - N/A   Clear
11:50 AM 84.2 °F 84.4 °F 60.8 °F 45% 30.01 in - East 4.6 mph - N/A   Clear
12:20 PM 86.0 °F 86.1 °F 60.8 °F 43% 30.01 in - ENE 6.9 mph - N/A   Clear
12:50 PM 86.0 °F 85.4 °F 59.0 °F 40% 30.01 in - East 8.1 mph - N/A   Clear
1:20 PM 87.8 °F 87.1 °F 59.0 °F 38% 30.01 in - East 6.9 mph - N/A   Clear
1:50 PM 87.8 °F 87.1 °F 59.0 °F 38% 29.98 in - East 6.9 mph - N/A   Clear
2:20 PM 89.6 °F 88.9 °F 59.0 °F 36% 29.98 in - SSE 6.9 mph - N/A   Clear
2:50 PM 91.4 °F 92.1 °F 62.6 °F 38% 29.98 in - South 8.1 mph - N/A   Clear
3:20 PM 91.4 °F 90.7 °F 59.0 °F 34% 29.95 in - SSW 10.4 mph - N/A   Clear
3:50 PM 91.4 °F 89.9 °F 57.2 °F 31% 29.95 in - SSW 9.2 mph - N/A   Clear
4:20 PM 93.2 °F 91.9 °F 57.2 °F 30% 29.95 in - SSW 8.1 mph - N/A   Clear
4:50 PM 91.4 °F 90.7 °F 59.0 °F 34% 29.95 in - SSW 13.8 mph - N/A   Clear
5:20 PM 87.8 °F 87.6 °F 60.8 °F 40% 29.95 in - South 18.4 mph - N/A   Clear
5:50 PM 87.8 °F 87.1 °F 59.0 °F 38% 29.95 in - South 17.3 mph - N/A   Clear
6:20 PM 86.0 °F 86.1 °F 60.8 °F 43% 29.95 in - SSW 17.3 mph - N/A   Clear
6:50 PM 84.2 °F 83.8 °F 59.0 °F 42% 29.95 in - SSW 17.3 mph - N/A   Clear
7:20 PM 82.4 °F 83.4 °F 62.6 °F 51% 29.95 in - SSW 15.0 mph - N/A   Clear
7:50 PM 80.6 °F 81.8 °F 62.6 °F 54% 29.95 in - SSW 10.4 mph - N/A   Clear
8:20 PM 78.8 °F - 62.6 °F 57% 29.95 in - Variable 3.5 mph - N/A   Clear
8:50 PM 80.6 °F 81.5 °F 60.8 °F 51% 29.98 in - Variable 1.2 mph - N/A   Clear
9:20 PM 78.8 °F - 62.6 °F 57% 29.98 in - NE 4.6 mph - N/A   Clear
9:50 PM 80.6 °F 81.8 °F 62.6 °F 54% 29.98 in - SE 4.6 mph - N/A   Clear
10:20 PM 77.0 °F - 60.8 °F 57% 29.98 in - Variable 1.2 mph - N/A   Clear
10:50 PM 75.2 °F - 60.8 °F 61% 29.98 in - Variable 3.5 mph - N/A   Clear
11:20 PM 77.0 °F - 59.0 °F 54% 29.98 in - SW 3.5 mph - N/A   Clear
11:50 PM 77.0 °F - 60.8 °F 57% 29.98 in - Variable 1.2 mph - N/A   Clear